Hauptseite
METAR-TAF:

METAR-TAF

Flughäfen :

Fliegerhorst Wunstorf

Wunstorf, Deutschland

Breite: 52-27N, Länge: 009-26E, Höhe: 57 m

Beobachtung

Neuester Wetterbericht von vor 59 Minuten, um 07:20 UTC
Wind 3 kt aus Ost/Südost
Temperatur 11°C
Luftfeuchtigkeit 87%
Luftdruck 1013 hPa
Sichtweite 10 km oder mehr
Leicht bewölkt in der Höhe von 4000 ft
Durchbrochene Bewölkung in der Höhe von 7000 ft

METAR: ETNW 230720Z 12003KT 9999 FEW040 BKN070 11/09 Q1013 BLU BLU TEMPO GRN

Zeit: 10:19 (08:19 UTC)


TAF: fehlend

Wetterbeobachtungen und Prognosen von mehr als 4000 Flughäfen (METAR und TAF Bericht).

Die verfügbaren Stationen werden durch gelbe und rote Markierungen auf der Karte dargestellt.

Führen Sie die Maus auf sie, um den Namen der Station zu sehen.

Darauf klicken, um die Beobachtung von Wetterbeobachtungen und Prognosen zu sehen.

Um die Karte zu ändern : klicken Sie auf den grünen Tasten mit einem schwarzen Kreuz Zum Vergrößern, auf den grünen Button mit einem Gedankenstrich zu verkleinern, oder auf die grünen Pfeile für benachbarte Karten.


METAR-TAF: